看板 car
標題
[討論] 在雪隧開最高速限被後車閃大燈?
作者 jazzcai
時間 2022/08/05 08:54:32
人氣 推:289 噓:173 留言:831
分享給朋友
如題 魯叔我今早6點多開在雪隧往宜蘭方向 ACC定速90Km/hr(雪隧上限就90) 然後後車貼我很近 看照後鏡目測後車離我應該不超過20公尺 還對我閃大燈 這應該不是我開太慢吧?! 總之我就沒理他繼續龜好 (當時有一個想法是想踩煞車嚇嚇他 但我還是沒做這件事) 果不其然 一出雪隧後,後車就立馬加速從我旁邊刷卡刷過去 然後出雪隧的第一個閘道就下了 不知道超我有什麼意義 對了,那台後車是RAV4 總之想請問一下 在雪隧開最高速限被後車閃大燈 單兵該如何處置? ----- Sent from JPTT on my iPhone -- ※ 發信站: 批踢踢實業坊(ptt.cc), 來自: 118.231.201.152 (臺灣) ※ 文章網址: https://www.ptt.cc/bbs/car/M.1659660876.A.5B3.html
ykii: 可以的話就跟上車流 08/05 08:55
EKman: 改開80啊,舒服 08/05 08:55
ting701: 實際應該只有85 08/05 08:56
krit1009: 我遇到牛頭牌都卑躬屈膝的跟他道歉 08/05 08:56
ting701: 然後人家實際想開99 08/05 08:57
manson666: 踩剎車啊 要不然就是他越貼 你就越慢 大家來玩啊 08/05 08:57
hb0922: 從來沒辦法理解頭又大車主的開車邏輯…嘖嘖 08/05 08:57
woodman: 你車沒後霧燈嗎?只是問問沒別的意思~ 08/05 08:57
Brightheat: 跟著他下交流道然後好好問他剛剛是在閃啥洨 08/05 08:57
KAOGUY0617: 改ACC 60阿 08/05 08:58
hb0922: 開後霧燈有機會被檢舉......什麼鳥建議 08/05 08:59
lanlanlu5566: 他屎在滾啦 一笑置之就好了 08/05 08:59
LeehomLee: 放油門 有後鏡頭他繼續閃就檢舉逼車 08/05 09:00
Mustang428CJ: 其實就是他覺得你開太慢,限速90 = 表速99 08/05 09:00
hank12332: 我的話就繼續聽音樂唱歌 08/05 09:00
ga047768: 看內線還外線 08/05 09:02
william826: 跟他車 等他下車碾死他 08/05 09:03
cocoi: 因為你沒滾開阿... 08/05 09:03
kazami: 要踩煞車玩別人就不要怕遇到一個敢直接撞上去的唷 08/05 09:04
kazami: ~ 08/05 09:04
T19871124: 開100啦! 08/05 09:04
alanngyj: 最高上限是90+9吧 錶速90實際可能才80幾 08/05 09:05
yanzistart: 開99好嗎 08/05 09:05
罰單你幫我繳嗎?
sunen: 飆仔悲哀 08/05 09:08
advtime: 這種就算定100也是貼你屁股 08/05 09:10
whiteheart: 照規矩來沒錯,不要理飆仔 08/05 09:10
atgo1207: 有acc就不要理他啊 可撥飆仔 08/05 09:11
eddie0729: 定速90實際只有85不到 建議可以改95 而且有超速容忍 08/05 09:12
eddie0729: 10公里 你就算定速100也是保證沒有問題的 08/05 09:13
AMSTERDAM14: 有看車板還定90 沒被開單就不錯了 08/05 09:14
速限最低70,我定90也不會開到60幾阿
kinhom: 你確定你的時速錶不是快樂婊 08/05 09:14
tcod: 上限90可以開到99 定速90實際頂多84,差了自由流車速 08/05 09:14
happyonly: 速限90請設100,GPS約97 08/05 09:14
tcod: 10-15kph 08/05 09:14
zxcvbnmnbvcx: 開什麼車 意外嗎? 08/05 09:15
JRanDer: 遇到這種我都90減速到65 笑他不敢超車 08/05 09:15
boydoop: 請開95不要當塞車主因謝謝 08/05 09:15
bdenken: 有法規保證99被開單是可以免罰嗎? 08/05 09:16
snowfish104: 就是你進隧道前在龜才跟不上車流咩 08/05 09:16
6點多雪隧根本沒什麼車好嗎
dreamelf: 放油門到70 08/05 09:16
L9m: 速限+5比較穩 08/05 09:16
smallputin: 努力跟上前車很難?! 08/05 09:17
TSMCfabXX: 快樂表 08/05 09:17
Linjax: 好好開車不要理他即可 08/05 09:18
cmchiu: 速限容許值是用來避免誤差的 不要一直鼓吹拿來用滿 08/05 09:18
t7788921: 雪隧我都ACC設在100啦,實際GPS96-97跳,根本沒被拍過 08/05 09:19
yumeixuan: 現在在國道上開霧燈好像不能檢舉了? 08/05 09:22
percentoff: 啊你就真的開太慢阿,開到99不行嗎 08/05 09:22
罰單你幫我繳嗎?
ffgordon: 人家實際開85-90都是合法的,噓的是怎樣,幫補血 08/05 09:23
openeyes222: 他只是內急 08/05 09:23
Yelich: 是我就改開80 08/05 09:23
sana113821: 快樂表可以訂+10%啦 08/05 09:24
ILS: 說不定…他不會設定大燈….一直在亂切 08/05 09:25
mingdao: 這版一堆噁心爛咖在護航逼車仔 一堆爛人 08/05 09:25
dslite: 看標題還以為是91匹 08/05 09:27
j88889aa: 叫跟上車流叫護航 又沒說逼車是對的 怎麼這麼崩潰 08/05 09:27
lumi0811: 可悲心態 08/05 09:28
flexin: Rav4也想當飆仔,笑死人XD 08/05 09:28
heartblue: 就是逼車垃圾,有種就變換車道開180 08/05 09:29
heartblue: 跟上車流也是智障,前面超速也要跟上? 08/05 09:29
AssKisser: 有法規保證99被開單是可以免罰嗎? 還真的有喔 08/05 09:30
ricky1111w: 塞車主因之一 08/05 09:30
rltc: 你今天才發現車版一堆雙標爛人啊 08/05 09:30
mingdao: 開到表速上限了還在那邊怎麼不開99 叫人家賭誤差值 08/05 09:31
chungj: 你被廣播了還不知道嗎 08/05 09:31
我進雪隧就聽警廣了根本沒有廣播
SSSONIC: 越閃我就開越慢 08/05 09:31
mrnegativetw: 雪隧全油門通過是基本常識吧 08/05 09:31
smallGGgirl: 龜車別上來自介 08/05 09:31
mingdao: 一堆智障言論阿 被開單誰出? 08/05 09:31
CMLeeptt: 當然是叫個火鍋來吃啊,火鍋送到就可以開始唱歌了 08/05 09:32
leo255112: 快樂錶,你的90不是真的90 08/05 09:32
m9229003: 難怪雪隧天天塞,無時無刻都在塞 08/05 09:32
早根本沒車,一堆人是只有假日去擠雪隧噢 ※ 編輯: jazzcai (118.231.201.152 臺灣), 08/05/2022 09:33:07
mycity: 表速90實際84,然後限速90上限99..XD 08/05 09:33
mycity: 沒影片不好判斷車流速度 08/05 09:33
※ 編輯: jazzcai (118.231.201.152 臺灣), 08/05/2022 09:34:38
Kepic: 真要逼車都5公尺內了還跟你20公尺 龜車仔 08/05 09:34
※ 編輯: jazzcai (118.231.201.152 臺灣), 08/05/2022 09:35:20
tsctao: 前面沒車,我會開到錶速100- 08/05 09:35
yesyesyesyes: 其實 真正的速限是99啦 不過貼太近真的不好 08/05 09:35
※ 編輯: jazzcai (118.231.201.152 臺灣), 08/05/2022 09:35:44
garra: 限速+10不會被拍 更何況定速100 有些車可能只有91.. 08/05 09:35
※ 編輯: jazzcai (118.231.201.152 臺灣), 08/05/2022 09:36:24
a19951218: 妳不會跟上車流? 廢話一堆 08/05 09:36
eric00611: 有往上+10的寬限值就容許你往下-10啦,不要學那些 08/05 09:36
eric00611: 雙標垃圾,你錶速90,GPS肯定有超過80,沒事的 08/05 09:36
stemcell: 離前車多遠? 08/05 09:36
garra: 跟上車流 或者實際時速不要小於限速+10好嗎 拜託... 08/05 09:37
Leon0810: 表速90實際才83左右,龜車無誤 08/05 09:37
eric00611: 可不可以註銷那些速限90的路段覺得開80叫塞車的垃 08/05 09:37
※ 編輯: jazzcai (118.231.201.152 臺灣), 08/05/2022 09:37:31
eric00611: 圾的駕照啊? 08/05 09:37
biggood20708: 老實說表速90在雪隧已經超快了,要知足 08/05 09:37
DavidEaston: ACC-10 +1 看他是要忍不住隧道內換車道還是逼車 二 08/05 09:37
cafein: 當然是急煞下車開他車門道歉啊 08/05 09:37
DavidEaston: 選一 08/05 09:37
advtime: 寬限值是拿來容錯的,真的出事還是算你超速 08/05 09:38
Leon0810: 雪隧會慢就是被你這種龜車搞爛。 08/05 09:38
chungj: 搞到現在雪隧還在橘線 08/05 09:38
你可以早上6點去開雪隧阿,當個聰明的用路人,懂?
Leon0810: 跟上車流很難嗎? 08/05 09:38
alen091918: 他家裡死人吧 08/05 09:39
s910561: 塞車主因 08/05 09:39
NeoSoulXD: 看推文真的是一堆低素質的用路人欸 08/05 09:40
matthewcheng: 定速慢慢降到70 讓他煩躁 08/05 09:41
rinkai: 降速啊 08/05 09:43
Danto18: 不要亂講,沒有什麼往下-10也可以,超過10公里內可 08/05 09:43
Danto18: 不予舉發是法條有寫的 08/05 09:43
tarjan33167: 人家開TOYOTA有絕對路權der 08/05 09:43
k268185: 定表速90被閃活該阿 08/05 09:43
chpses: 照表速開就好了推文的也不會幫你繳罰單 80幾是多慢 08/05 09:43
Danto18: 可沒有寫什麼限速+10-10都可以 08/05 09:43
※ 編輯: jazzcai (118.231.201.152 臺灣), 08/05/2022 09:44:19
chpses: 上禮拜才開過基本上 都只到60/70而已 08/05 09:45
Danto18: 你可以說最低70我就開70,那沒關係,就沒到最高速限 08/05 09:46
chpses: 車流量高就是這樣 合法表速盡量跟上車流 我是這原則 08/05 09:46
Danto18: ,所以被嫌慢也是正常 08/05 09:46
theurgy: 推一個 高速公路我都定速80開中間 常看一些死飆仔從 08/05 09:47
theurgy: 我旁邊刷過 不然就閃燈 哭喔 08/05 09:47
gx9900824: 放油門 壓力測試一下 08/05 09:48
applewarm: 是慢了點,不過後面那台八成你開一百也是會這樣 08/05 09:48
Alphaplus: 你明明知道台灣人就是開速限+10 08/05 09:49
Alphaplus: 硬要上來問,是時間太多還是想感受溫暖? 08/05 09:49
constraint: 龜速仔活該 08/05 09:49
a894392000: 確定沒有龜的話狂閃我就踩煞車 08/05 09:51
horb: 不要理他就好了 08/05 09:51
Ccsteeker: 定速90沒問題,支持你。 08/05 09:52
Ccsteeker: 穩定車距,合理速度,「反而」才不會塞車。 08/05 09:52
ChungLi5566: 自己沒違規就不用理他 自己晚出門排在後面就乖乖排 08/05 09:53
andy00xx: 想討拍喔 08/05 09:53
pavaro: ACC不是會自動加10嗎?什麼爛車 08/05 09:53
horb: 速限+10。我的經驗是沒被開過單。但是+15有被開過單 08/05 09:53
horb: 。(高速公路)。台北平面道路超過一點點就開單了 08/05 09:54
ABC0000: 我都開+9 這是寬限值 不要龜車了了 08/05 09:54
horb: 穩定車速才是不塞車的最佳解+1 08/05 09:54
IMars: 哈哈 一堆超速仔教守規則的開車 08/05 09:55
pavaro: 還被rav4刷卡 有夠羞恥 08/05 09:55
ChungLi5566: 速限多少就開表速多少 不要擅自+5 +10 08/05 09:55
Ccsteeker: 三寶貼太近,三寶踩剎車深一點,造成不穩定的前進 08/05 09:55
Ccsteeker: 。 08/05 09:55
LAURANCE: 放油門 08/05 09:55
Ccsteeker: 第一台90-80,下一台80-75下一台75-70下一台70-65 08/05 09:55
Ccsteeker: 下一台65-60,輪到隧道尾就是普遍時速30,符合大腦 08/05 09:55
Ccsteeker: 運動反應時間。 08/05 09:55
eatn: 被rav4刷卡 xd 08/05 09:56
ghost90331: 你前面沒車的話要不要看一下是不是後面排了一堆車 08/05 09:56
後面就他一台,平日早上6點多根本沒幾台車啊
horb: 飆車仔鑽來鑽去。害後方車踩煞車引發連鎖效應。才是 08/05 09:57
horb: 塞車主因。但飆車仔不懂 08/05 09:57
Ccsteeker: 保持車距,盡量保持穩定速度,就減少塞車,但是我 08/05 09:57
Ccsteeker: 猜這不可能,因為車上很忙,要滑手機,看劇,發呆 08/05 09:57
Ccsteeker: ,挖鼻屎。 08/05 09:57
gbd37: 超速仔好多.. 比我想像還多 08/05 09:57
XR125: 你前面沒車不能開100嗎?這是什麼駕駛水準,被閃剛 08/05 09:58
XR125: 好而已啦 08/05 09:58
dsakryk: 後車是學長才加速 不然都不管 08/05 09:59
m996360: 國道速限+10公路局有講過不會開單 08/05 09:59
photow: ACC 90很不錯啊,雪隧龜車開7x多的是。 08/05 09:59
m996360: 你開90,實際上只有86,後面用10幾公里的速差貼上來 08/05 10:00
sniper2824: 飆仔崩潰 笑死 08/05 10:01
m996360: 我是不會閃你燈,但會覺得你超龜可以去外線嗎 08/05 10:01
pavaro: 你6點多出門這麼苦命 還欺負跟你一樣苦命的人 08/05 10:01
mardy0422: 希望你是外線定90不是內線 08/05 10:01
horb: 上面截圖看起來是說+10會予以勸導。但微罪不罰 08/05 10:02
CowboyBebop: 這樣就要繳罰單 第一天上路? 08/05 10:03
blue821229: 雪隧哪有分內外線啊勁戰仔 08/05 10:05
Samurai: 不用理飆仔,雪隧開90很正常了 08/05 10:05
black82465: 出隧道補油門 教他什麼是禮貌 08/05 10:05
lizard30923: 錶速90 大概實際85啊,一堆這種自私龜 08/05 10:06
becry: 這情況也能檢討原po難怪要設立腦殘的區間測速 08/05 10:06
Samurai: 一堆飆仔不知道開什麼破車,都腦補別人表速會跟實 08/05 10:07
vacuesen: 限速多少就開多少,不需大主大意+5+10,不罰不代表沒 08/05 10:07
Samurai: 際速度差很多 08/05 10:07
vacuesen: 違規 08/05 10:07
crime0828: 不趕時間就降到最低速限 看誰比較生氣呀 08/05 10:08
firstneko: 建議ACC可以定100啦 不會被拍放心,但我遇到定速90 08/05 10:08
firstneko: 的我一般都跟著就是了 08/05 10:08
Samurai: 勁戰仔快存錢買車吧,雪隧外線是三小 08/05 10:08
Rilakkuma777: 沒車定100可以嗎.又不會開單.就一堆你們這種人 08/05 10:08
firstneko: 如果你用GPS測車速,你定100 實際大概95.96左右 08/05 10:09
lizard30923: 照這種垃圾心態開gps70也行啊,反正閃燈都飆仔 08/05 10:09
lizard30923: 我沒違規好棒棒 08/05 10:09
gt12345: 飆仔又再亂了 呵呵 08/05 10:09
kira925: 雪隧內沒有+10吧... 08/05 10:10
andy279279: 樓主沒錯 但我不想跟在你後面 08/05 10:10
maxqq33520: 不懂一直再嗆的邏輯,告示牌上面就是限速90,原po定 08/05 10:11
maxqq33520: 速90沒問題啊。 08/05 10:11
lizard30923: 雪隧內一樣有+10 別亂教,我宜蘭人雪隧開幾百次了 08/05 10:11
maxqq33520: 如果要提到錶速跟GPS有誤差,那是車廠的問題,並不 08/05 10:11
lizard30923: 定速100沒被開過 08/05 10:12
maxqq33520: 是原po 。 08/05 10:12
maxqq33520: 再來說上限+9,怎不去找政府修改告示牌上限為100? 08/05 10:12
maxqq33520: 原po被噓真心覺得可憐。 08/05 10:12
eulbos: 隧道沒GPS訊號吧 抓錶速+5差不多 08/05 10:12
firstneko: 全台灣測速寬限都是+10 “全部” 沒有分 08/05 10:12
alanwin: 開雨刷水洗玻璃 08/05 10:13
AirCondition: 你可以試試看減速減到你的錶速70看會不會被開龜車 08/05 10:13
AirCondition: 罰單,再來跟我說你的錶準不準 08/05 10:13
lanx105: 我阿罵二輪買菜車都能90了 08/05 10:14
siopp: 寬限值就是10,什麼路段都一樣 08/05 10:14
lizard30923: 看這篇的推文就知道為啥這麼多內線龜整天喊自己最 08/05 10:15
lizard30923: 高速開內線實際根本不到了 08/05 10:15
a94260088: 你就開你的,不用理會是嘴砲鄉民 08/05 10:15
spiriturl: 無視就好,路上一堆智障每台都在意會很累 08/05 10:16
yasionl: 雪隧開90難怪會塞車 08/05 10:16
ian41360: 降成80呀 08/05 10:16
wade801210: 先上圖吧 還特別說哪台 酸or 幻想文 08/05 10:16
s12358972: 我是建議以後雪隧都限速直接限40就好了 08/05 10:17
s12358972: 反正龜車這麼愛龜 08/05 10:17
LastHuman: 根本沒吃是因為你前面都沒車,車子被你擋在後面了 08/05 10:19
mardy0422: 哇~樓上484很少走雪隧啊 08/05 10:19
mardy0422: 小弟宜蘭人早就走了不知道多少次雪隧了,外線雪隧會 08/05 10:19
mardy0422: 有大客車 ,大客車 08/05 10:20
mardy0422: 只能走外線而且通常不快,你今天已知要acc90,就去 08/05 10:20
mardy0422: 外線慢慢開沒有任何毛病的。 08/05 10:20
leota: 龜 08/05 10:21
polaroidd: 這種垃圾到處都是 08/05 10:21
cpm25: 屎在滾啦 08/05 10:22
CoSa: 噴水 08/05 10:23
sintryhao: 看這推文就知道台灣整天在塞車是為什麼了 08/05 10:23
belucky: 別理噓的人 不相信車錶時速 難道相信嘴砲的時速 08/05 10:23
k7202001: 開台大七或S 他就不敢了 08/05 10:23
belucky: 喔 你沒錯啦 08/05 10:23
seysem: 輕踩剎車 讓他更生氣 反正撞到他要賠 08/05 10:25
seysem: 雪隧都有監視器 還可以幫你做證 08/05 10:25
wavespirit: 快樂錶 還是龜 08/05 10:25
firstneko: 原po雖然我覺得你偏慢,但你沒錯 08/05 10:25
ga047768: 其實常開的都知道,雪隧外線會比內線快。 一堆有隧 08/05 10:25
ga047768: 道恐懼症的超愛卡內線。 外線大客車爬坡都90以上在 08/05 10:26
ga047768: 衝… 08/05 10:26
Jeff911: 定90 or 100 這段路差不到幾秒,根本沒差. 08/05 10:26
kokunmai: 08/05 10:26
edkoven: 限速90開表速90有什麼問題?鍵盤警察真的以爲自己 08/05 10:26
edkoven: 是警察喔。另外表速調比較低請去幹政府未啥這樣做 08/05 10:26
Ccsteeker: 90不是塞車主因,是「不合理車距的煞車」。 08/05 10:26
dog22: 車板就一堆飆仔,開90本來就沒問題 08/05 10:26
semicoma: 一般遇到這種情況 我除了維持車速 邊開車邊唱著歌 08/05 10:26
semicoma: 之外 還會同時煮起火鍋 08/05 10:27
Ccsteeker: 你順順90怎麼到隧道後面是30?想一下各位。 08/05 10:27
belucky: 真的阿 被閃大燈又怎樣 你不是龜車啦 08/05 10:27
Ccsteeker: 有人貼很近,煞車。90-85下一台85-80下一台75-70下 08/05 10:28
Ccsteeker: 一台65-70然後到30差不多就是人腦的反應時間距離, 08/05 10:28
rainbow321: 你就內線龜啊 比你快就是要閃啦 08/05 10:29
Ccsteeker: 也就是各位說的塞車。 08/05 10:29
threeM: 跟上車流很難嗎? 08/05 10:29
ga047768: 只要比烏龜快的都飆仔。 08/05 10:29
Oo5566: 你錶速90可能實際上85甚至79阿,其實差蠻多的 08/05 10:29
Vram: 因為他沒acc,腳很酸 08/05 10:29
rcak801: 塞車也不會是90和99的差別造成的吧,而且這種跟上 08/05 10:30
rcak801: 面有人說的一樣,你開到100他也是貼上來 08/05 10:30
Micchu: 錶速=GPS?+-10開3小單 龜仔 08/05 10:31
Micchu: 我以為這裡都老人 結果有夠菜 08/05 10:31
rock0747: 這也要上來問?第一天開車嗎? 08/05 10:31
rcak801: 退一步來說,前車開不夠快和後車不保持安全距離哪 08/05 10:32
rcak801: 一個比較嚴重,我是覺得後者啦,你要人家快就閃燈 08/05 10:32
y7moremore: 飆仔平常說話很大聲 最大聲的是撞死那次 08/05 10:32
rcak801: 吧,貼那麼近要是真的遇到緊急狀況不就兩個都去了 08/05 10:32
Ccsteeker: 隧道 90 為什麼到後面是 30?原因就是「煞車」。你 08/05 10:33
Ccsteeker: 逼車,不保持合理車距,誤導後方,就會這樣。 08/05 10:33
Ccsteeker: 如果保持合理車距,減少煞車,也許30可以提升到50- 08/05 10:34
ga047768: 終於知道為什麼道路這麼塞了,這種問題也上來問。 08/05 10:34
Ccsteeker: 60,車多的情況這樣還算合理。 08/05 10:34
haverjohn: 沒車還開90-_-,欠閃喔! 08/05 10:35
Ccsteeker: 但是這種交通觀念,沒人教,考試也不考,就丟一句 08/05 10:36
Ccsteeker: 「保持車距」,背後更多的原因,好處,都不講,台 08/05 10:36
Ccsteeker: 灣教育普遍如此,你就是背就好。 08/05 10:36
karta3314039: 請他飛過去吧 08/05 10:38
Ccsteeker: 欠缺道路觀念理解,別人已經合理合法,還去逼人。 08/05 10:38
ga047768: 如果雪隧沒內外之分,為什麼不開放大客車行駛內側 08/05 10:38
ga047768: 車道? 08/05 10:38
kobe741107: 路隊長還上來取暖喔 08/05 10:39
Ccsteeker: 如果80內線一定噓,穩定90在雪隧有什麼問題嗎? 08/05 10:40
rexagi1988: 說真的罰單又不是噓文的繳...的確我覺得車主應該可 08/05 10:40
rexagi1988: 以再快一點點,但他的車速一定是沒有問題的 08/05 10:40
a894392000: 車版素質真的低落 塞車主因絕對不是開在最高速限的 08/05 10:40
a894392000: 錯 而是不合理的車距跟煞車還有佔用超車道 08/05 10:40
Ccsteeker: 相比穩定90在內線,逼車煞車才像三寶。 08/05 10:41
weijinsusu: 表速90,其實還是可以再快一點跟上車流,如果你前面 08/05 10:41
weijinsusu: 有車誰會閃你 08/05 10:41
az400570437: 龜車 08/05 10:42
Ccsteeker: 如果前方空曠,閃完大燈,最多按個喇叭,沒反應, 08/05 10:43
Ccsteeker: 就是捏老二挖鼻屎跟他一起90到底。 08/05 10:43
Ccsteeker: 也就是提個醒,看他有沒有意願再拉高一點,跟上前 08/05 10:44
Ccsteeker: 方 08/05 10:44
rayxg: 龜車你好 08/05 10:45
pk329: 龜車自介喔,下次定速99被逼再上來哭好嗎 08/05 10:46
a22530722: 占用內線龜速仔 自己讓出內線好嗎 內線要飆車用的 08/05 10:46
jasonis08: 原po八成就是內線定速龜車,可悲啊 08/05 10:46
leecowbear: 是不知道表速跟實際有差嗎 08/05 10:47
JEON: 開個表速100很難嗎 08/05 10:47
lobo51: 你按照規定速限 不用理他 08/05 10:47
mosszombie: 隧道要怎麼讓內線 08/05 10:48
jacklgy: 照限速開也要被噓,就知到一堆人開車素質很差 08/05 10:48
SimplePraise: 奇文共賞 08/05 10:48
taiwan3135: 錶速90.....好意思 08/05 10:50
EthannnP: 沒車定速90 噓 08/05 10:51
Xyler6561: 隧道又不能超車內不內線有差嗎? 車速慢的主因明明 08/05 10:51
Xyler6561: 就是莫名其妙煞車 08/05 10:51
ga047768: 看這串留言,以後我都安心在雪隧內線定70了! 08/05 10:52
cuteyuyu1130: 定速90就是不到90啊! 08/05 10:52
pk329: 龜車仔們一起去省道取暖啦,誰都知道你的龜車速限 08/05 10:52
pk329: 根本不準,還在看表速笑死 08/05 10:52
Xyler6561: 反正罰單也不是你繳 出一張嘴最快啦哈哈 08/05 10:52
OhtaniHR: 看完這串,為何會這麼多車內線不到最高速限大家應 08/05 10:53
OhtaniHR: 該都知道了吧,我錶速最高速好棒棒 08/05 10:53
Ccsteeker: 291樓,你「穩定」70,將比你逼車更幫助紓解塞車 08/05 10:54
tom282f3: 車板不意外 幫補血 08/05 10:54
Ccsteeker: 為什麼90會變成30,主因「煞車」。 08/05 10:55
ga047768: 國道區間測速架起來 08/05 10:55
QuentinHu: 就是你喔抓到了,每次開雪遂一堆烏龜 08/05 10:55
xru03: 別理他,他趕時間就自己想辦法超車 08/05 10:56
Ccsteeker: 只說保持車距,原因好處,都不講,台灣教育爛懶惰 08/05 10:57
Ccsteeker: 為什麼90最後會30,不就一條線?想一下。 08/05 10:58
anyu0805: 原po在隧道內又沒辦法閃! 08/05 10:59
對啊,還一堆人叫我閃去外線,讓我傻眼
andy978: 聽說出車禍就沒有寬限值 08/05 11:00
snowcoat: 他提醒你開太快啦 改定85就好了 08/05 11:00
nekogogogo2: 限速內還要責怪人家?台灣行車素質真的很差耶,一堆 08/05 11:02
nekogogogo2: 路怒症記得吃藥 08/05 11:02
kobe7610: 龜仔不意外 08/05 11:03
ga047768: 速限定70都會被說逼車了,真的沒啥好說的。 08/05 11:03
birdman4368: 人家為所欲為牌耶 08/05 11:04
imdada0621: 龜 08/05 11:04
Relid: 其實我蠻好奇的是,大家怎麼能這麼肯定自己的表速是 08/05 11:05
Relid: 不是準的? 08/05 11:05
lb751007: 有一陣子雪隧有標語 時速一百以上才取締 後來又撤 08/05 11:08
lb751007: 掉了 08/05 11:08
Lowpapa: 他沒有閃大燈 是他的燈就是這麼高 而且會晃 08/05 11:09
gn90178: 你開太慢 08/05 11:11
gn90178: 建議你坐台鐵或客運,不要擋路 08/05 11:13
MAKAI7492: 有gps啊!比對兩個數字小學有教吧! 08/05 11:14
vatog: 你有比較過GPS速度和你車速表的差別嗎? 08/05 11:15
yojhi: 龜龜 08/05 11:16
vatog: 隧道內就算沒有GPS訊號 你平常也可以觀察速差吧 08/05 11:16
atana: 你開在哪一道? 08/05 11:16
vatog: 要先確定你的車速表是接近真實速度的 08/05 11:17
GymRat: 事後約去海產店喬 08/05 11:17
sailinama: 錶速跟gps時速都不知道?就你這種的造成塞車啦 08/05 11:18
jacklgy: 人家照速限開沒啥問題,嫌龜的,有本事隧道內變換車 08/05 11:19
ga047768: 其實雪隧想飆還真的需要一點本錢,討論雪隧飆仔的 08/05 11:19
jacklgy: 道超車啊,幾公里的隧道而已,是差這幾公里時速膩, 08/05 11:19
ga047768: 有開過雪隧嗎… 08/05 11:19
jacklgy: 七月到趕投胎? 08/05 11:19
clamperni: 勁戰版不意外 08/05 11:19
mytropicfish: 定速102吧 實際就是98 08/05 11:21
p10121987: 開90還被嗆龜 勁戰版真的不意外 08/05 11:21
HeroFun: 開99被開單我出 這樣可以了吧? 08/05 11:21
ht5201: 你沒安裝後行車記錄器齁,檢舉下去 08/05 11:23
k85564: 沒塞是因為 你讓後面的塞了 08/05 11:24
il1beta: 敢閃大燈 用後鏡頭檢舉他 08/05 11:24
ifuxxyou: 怕吃罰單?沒自覺的人最可怕 08/05 11:25
frank111: 上限90可以開100,定速90實際只有85,你慢了他15 08/05 11:25
kevinq33: GPS90再來說最高限速 08/05 11:26
ga047768: 先說有沒有測過表速跟GPS差多少? 還有開內線還外線 08/05 11:26
frank111: "高速"公路,是為了有效率的達成運輸功效 08/05 11:27
frank111: 在速限內用最高速行駛很難嗎? 08/05 11:27
ga047768: 定表速70,看你會不會被開慢速單 08/05 11:28
handsomeGG: 一群趕投胎的可悲仔 08/05 11:31
ac8628: 龜仔車又自介了!是前五名的白色福鹿仔龜尬嗎? 08/05 11:36
p806155: 出車禍警察都是問你開多少,就回答我保持速限內在 08/05 11:39
p806155: 開就好,其他引導式要你回答一個數值其實都不用理 08/05 11:39
p806155: 會 08/05 11:39
koes2005: 沒車還定速90 後車可憐 08/05 11:39
airmike: 不知道自己表速的請在晴天在高速公路直線路段 開一 08/05 11:43
airmike: 段 打開GPS對比儀表板就會知道 通常要真的最高速限 08/05 11:44
airmike: 至少請加5kph 至於要開到速限+10的 因為不算合法只 08/05 11:45
ohya111326: 檢舉 08/05 11:46
hmt17: 前方沒車我都定在102 08/05 11:46
airmike: 是不會開單 大家要隨自己意志選擇 08/05 11:46
cjohn: 表速90真的不夠快,97~99不會被拍照 08/05 11:46
ga047768: 客運都從你旁邊開過去了… 08/05 11:47
chbio: 99會被罰嗎?不會吧,速限加10公里阿,又儀表板速 08/05 11:49
Lanese: 雪隧塞車就是你這種的,我通勤都定100沒收過罰單 08/05 11:49
chbio: 度比gps速度高個幾公里 08/05 11:49
tluorvtele24: 果不其然推文一堆低能飆仔 笑死 08/05 11:52
JOHNJJ: 你應該要學大舒繞隧道一圈 他就不敢逼你車了 08/05 11:54
chpses: 阿就合法 而且也沒低最高速限多少 到底在嘴啥? 08/05 11:54
gn90178: 護航的是沒被龜過吧,全世界等你一台定速龜車 08/05 11:55
chpses: 不然政府規定每台車加裝GPS阿笑死 08/05 11:55
kymcokymco: 前面沒車我都定速107,因為GPS才 顯示100,都現在 08/05 11:55
kymcokymco: 還沒被拍過,給你參考 08/05 11:55
ga047768: 比龜仔快的是飆仔;比飆仔慢的是龜仔。 有正常仔嗎 08/05 11:56
blackman5566: 車板邏輯 90->龜、塞車主因、後車可憐 95->超快的 08/05 11:57
tluorvtele24: 速限內穩穩開看可憐飆仔氣死 超爽的 08/05 11:57
Murasaki0110: 改開80滿滿晃 08/05 11:57
yonderknight: 比你快都飆仔,比你慢都龜車呵呵 08/05 11:58
ga047768: 下次內線定73再來分享 08/05 11:58
xpu: 表速90還可以大聲嚷嚷 ACC定103從沒被開單過 08/05 11:59
rainbow321: 我內線acc定速150 你比我慢 你龜車 08/05 11:59
benben994: 噓的真可悲 90 跟99是差多少 08/05 12:01
aa0968: 內車道遇到這種正常 外車道遇到就不用鳥了 08/05 12:02
bagtwo: 連龜車都嫌你龜 笑死 08/05 12:02
bagtwo: 車是有多爛沒抬顯 抬顯速度和GPS一樣 08/05 12:04
frank111: 竟然有人不知道90跟99是差多少,答案是差9 08/05 12:05
ga047768: 如果沒差,那當初為啥要把最低跟最高速限調高… 08/05 12:07
tokidoki: 你另外一邊的車道是不是一直有車超越你 請跟上車流 08/05 12:07
KAOGUY0617: 這邊一堆快樂表 我定110 GPS108 等等又檢討快樂GPS 08/05 12:07
zzh1014: 看推文就知道這版很多沒在開車的 08/05 12:07
bigshiun: 前面沒車就開快一點吧 08/05 12:08
ga047768: 速度越高,單位時間內能通過的車流越多。 08/05 12:08
GimO: 慢慢開就好 我就喜歡看別人不爽的樣子 08/05 12:08
APC: 閃三下雙黃燈讓他自己解讀 xD 08/05 12:08
frank111: 終於知道為什麼只敢開90了,因為不知道90跟99差多少 08/05 12:09
midasptt: 去坐客運就不用繳罰單了 08/05 12:09
jimmy199483: 速限90 定速95都是剛好而已 90實際速度才8X 08/05 12:10
frank111: 99-90=9小於10,不會被開單喔 08/05 12:10
jimmy199483: 如果你前面還沒車 就是路隊長了 08/05 12:10
krescent: 限速90本來就可以開到99不會開罰,連這都不知道駕 08/05 12:10
iceking: 不用理他 他很守規矩耶 沒直接在隧道超車XD 08/05 12:10
krescent: 照是雞腿換的? 08/05 12:10
fire124: 90太快了 期待交通部改成20最安全 08/05 12:11
gadoma: 你定90,實際速度85.86啦,喜歡講上限90就開到90阿 08/05 12:11
gadoma: 你開91-99被拍照罰單我幫你繳啦,90說嘴仔 08/05 12:13
dian6228: 取暖失敗 08/05 12:15
pearlQQ: 有急事,你可能不知道而已 08/05 12:15
I1yamin: 龜 08/05 12:15
jasonis08: 可悲仔還叫人家閃,能閃誰要被你龜擋,時間太多別上 08/05 12:16
jasonis08: 路害人好嗎? 08/05 12:16
gadoma: 20公尺有4.5台車身的距離,蠻舒適的車距,你的距離 08/05 12:16
gadoma: 感是不是有問題 08/05 12:17
shellpig: 有朋友開到+5被開單的。所以有沒有人敢說開+9只要 08/05 12:17
shellpig: 被開單他都買單的?一個都沒有啊,那真的是一群鍵 08/05 12:17
shellpig: 盤俠,呵... 08/05 12:17
shinyguo: 龜車邏輯就是怕吃罰單啊,什麼跟上車流維持道路順 08/05 12:17
shinyguo: 暢的問題一點也不重要 08/05 12:17
Glacier319: 這篇厲害 害人人格分裂 車版最討厭的牛頭牌但卻是 08/05 12:17
ashyang: 是不是該重新定義馬路三寶 08/05 12:18
Glacier319: 車版最喜歡的超速仔 08/05 12:18
frank111: +10內政府單位自己都說不罰了,叫你朋友+5的單拿來 08/05 12:18
frank111: 不信?自己發函到各交通單位問看罰不罰 08/05 12:19
belucky: 鍵盤超速很會阿 負責不敢拉 08/05 12:19
swordfishcs: 每次這種文一出 就一堆超速仔在群魔亂舞了 08/05 12:20
espnlive: 可以定速99或100呀 又不會被開罰單 08/05 12:21
l11111111: 這我一定放油門 08/05 12:22
JOHN2188: 看推文就知道台灣交通亂不意外 08/05 12:22
ktan: 快樂錶 08/05 12:23
JOHN2188: 原PO沒問題,後面要貼的光是安全距離就不符規定了 08/05 12:24
JOHN2188: ,會逛車版但一堆觀念還是很弱阿 08/05 12:24
JOHN2188: 是有多弱只能冀望前車讓你或為了你提高速度,根本 08/05 12:26
ga047768: 暖版 08/05 12:26
JOHN2188: 媽寶巨嬰,有要事不會提早出門? 08/05 12:26
hang520: 幫補血,一堆叫人開90以上,罰單你出嗎? 08/05 12:26
Samurai: 不愧是反指標板,雪隧開90也要被飆仔噓 08/05 12:27
xiaotee: 90跟99不知道會不會差到10分鐘 嘻嘻 08/05 12:27
JOHN2188: 看完推文真的覺得素質真差,當八卦版看吧 08/05 12:27
mathrew: 活該被閃 08/05 12:29
XXXXCOW: 就是有你們這種才會塞車 08/05 12:29
JOHN2188: 後面活該被擋XD 08/05 12:30
XXXXCOW: 如果定速90麻煩開右邊車道 謝謝 08/05 12:31
Lanese: 人家隧道內廣播在速限範圍內盡量提高車速了(坪林行 08/05 12:31
Lanese: 控中心有說過速限是90+10寬限值) 08/05 12:31
enthusiastic: 開雪隧太無聊了玩一下車子配備錯了嗎? 08/05 12:32
relaxcloud: 寬限值不是讓飆仔這樣用的好嗎…酸品牌的也是好笑 08/05 12:33
relaxcloud: ,龜你也酸、守法你也酸、超速還是要酸 08/05 12:34
Kaken: 不要老是鼓勵別人把容許值吃滿啦-_-;; 08/05 12:34
Lanese: +5被罰的可以po個罰單嗎? 08/05 12:34
JOHN2188: 速限+10是得不予舉發,實務上也確實沒在開單的,要 08/05 12:34
JOHN2188: 不要這樣開看個人。但原PO這樣開也完全沒問題,在 08/05 12:34
JOHN2188: 後面哭的是多弱沒本事阿笑死,只能乞求前車配合你 08/05 12:35
JOHN2188: ?前車根本沒義務去配合你,媽寶巨嬰只會靠別人笑 08/05 12:35
alex57133: 龜車沒自覺 08/05 12:35
JOHN2188: 死 08/05 12:35
relaxcloud: 嚴格來說,原po的表速90不一定是實際90,所以你有 08/05 12:35
relaxcloud: 可能沒開到上限,你應該要知道你的表跟gps差多少, 08/05 12:35
relaxcloud: 要開到那個值才算 08/05 12:35
Ambition0114: 說要降低車速的 幹你老師 雪隧塞就你們這種人在雷 08/05 12:35
earthuncuttv: 改開72 08/05 12:36
Ambition0114: 別理他開你自己的就行 管他實際速度多少 錶速配合速 08/05 12:36
enthusiastic: 在紅斑馬雷射槍前開表速加13也沒問題,但各家車廠 08/05 12:36
Ambition0114: 限這樣就好 08/05 12:36
enthusiastic: 快樂程度不同 08/05 12:36
greenx: 有後行車紀錄器,可以檢舉連續閃大燈 08/05 12:36
jackylin1999: 雪隧就是有你這種才會瘋狂塞車 08/05 12:37
a31670323: 不用理他 08/05 12:37
Lanese: 不要笑死人了,雪隧速限90(寬限值到100)一堆人開不 08/05 12:37
Lanese: 到錶速90,然後到彭山、石碇速限80(寬限值到90), 08/05 12:37
shinyguo: 說真的雪隧還會定速90都還好,多的是不專心開,塞 08/05 12:37
Lanese: 一堆都開100以上的? 08/05 12:37
shinyguo: 車期間空個十台車的距離用40公里在滑的 08/05 12:37
shinchan1314: 台灣鯛在隧道真的都很龜 08/05 12:38
greenx: 對違規仔來說,不管你開多快,比他慢就是龜車 08/05 12:38
deity521: 前面沒車 設高一點吧 90大概也才85 08/05 12:39
greenx: 最喜歡看違規仔崩潰,有夠爽 08/05 12:39
benny6513: 笑了 又在檢討品牌 明明就人的問題 08/05 12:40
Lanese: 龜車仔看來都不聽雪隧內的廣播 08/05 12:40
heartblue: 定速100造成雪隧塞車?這智商? 08/05 12:44
Lazzaro: 一堆飆仔在那邊飆 四輪寶 08/05 12:44
heartblue: 雪隧廣播會要求你超速駕駛?這智商? 08/05 12:44
Trulli: 表速90 實際大概80初 其實可以開到90+9 08/05 12:46
mc2834: 我笑了,原po發文被公幹 08/05 12:49
我也是笑了,看來一堆人不知道雪隧不能超車,而且內車道是開小客車外車道才是大客車
xxxx9999xxxx: 提醒你開大燈吧。 08/05 12:50
afune12369: 幫補血 原po沒錯啦 這裡飆仔一堆 來這討拍無效 08/05 12:51
ccchenny: 我看你完全不懂哦 08/05 12:51
LinuxKernel: 車板就是一堆飆仔逼車仔不意外 08/05 12:54
ga047768: 上次在雪隧逼這麼近的,我直接檢舉他開霧燈。 08/05 12:54
away2233: 你去開到100有罰單我繳啊。常經過錶102都沒罰單。 08/05 12:54
away2233: 就你在龜。早上六點不是問題,問題是不能變換車道 08/05 12:54
away2233: 。早上六點還要遇你龜車真可憐。自己去找影片,所 08/05 12:54
away2233: 有道路測速+10是緩衝不會被開 08/05 12:54
undGretyl: 真菜 08/05 12:55
Magic0312: 有人要幫你繳了,沒藉口了吧 08/05 12:57
overbabo: 難怪雪隧每天塞車 08/05 12:58
Magic0312: 邏輯上你訂90就不可能是最高速限 08/05 12:58
itoennn: Zzzzzzz 08/05 12:59
jackythere: 反正你記得如果他拿球棒的話,直接把對方往死裡撞 08/05 13:00
jackythere: 就對了。這年頭比誰瘋就對了 08/05 13:00
Lanese: 雪隧廣播會叫你在速限範圍內(90+10),盡量提高你的 08/05 13:01
Lanese: 車速,動不動愛嘴人智商,有很厲害? 08/05 13:01
afune12369: 又不是定60 一堆人看到就像看到殺人犯一樣高潮 可憐 08/05 13:01
SheenaRingo0: 還沒點就知道會有一堆低素質違規飆仔說別人龜車 08/05 13:02
alanngyj: 你看看你 08/05 13:02
a92165tw: 笑死一堆噓的是人生過的多失敗 08/05 13:04
afune12369: 原po開90又沒有造成塞車 一堆可悲飆仔平常被塞到哭 08/05 13:04
afune12369: 無處宣洩跑來狂噓 根本飆仔名冊 笑死 08/05 13:05
mono1023: 拿led手電筒對照後鏡閃回去 08/05 13:07
gwjhs112: 表速90=實際90?哪家的儀表這麼準? 08/05 13:08
你進雪隧遇到龜車記得要換車道超車哦
gwjhs112: 要龜就去外側龜,不懂在內側龜還引以為傲的心態 08/05 13:10
mono1023: 噓的很有事 每台快樂表都一樣? 08/05 13:10
mono1023: 緩衝速限都要吃滿 就不要意外收到單 08/05 13:10
hupi0804: 照速限開建議是去外側車道啦不會有壓力 08/05 13:12
mico: 不會開車別龜速擋路好嗎 08/05 13:15
austin0353: 實務上跟前車越拉越遠就要在寬限值內稍微提速,若不 08/05 13:16
austin0353: 想這樣做,既然沒什麼車,你何不開外線呢? 08/05 13:16
ga047768: 這種車速到外線,是要逼死客運大哥是不是… 08/05 13:18
lyuxing: 你ACC開90實際只有85不到,離規定90+10還很遠 08/05 13:24
STi2011: 這種情形就是90龜死他 我支持你 08/05 13:27
fallsvilla: 開車我只看導航跟我調過的抬頭顯示(接OBD但是顯示大 08/05 13:27
convergent: 99 08/05 13:27
fallsvilla: 概是GPS-1) 開高速公路速限+5~10 沒被閃過 08/05 13:27
fallsvilla: 打錯 GPS+1 08/05 13:28
ismylife29: 所以限速90要開到多少? 99? 08/05 13:31
woodsaxo: 一定是開太快,請改開最低速限 08/05 13:36
shawncarter: 台灣白痴真的很多 08/05 13:36
summer08818: 定90還想踩剎車嚇人? 你知道你的實際速度不到90嗎 08/05 13:38
ysmsy: 其實你只是因爲自己的快樂錶而自以為 08/05 13:39
ysmsy: 開到90,然後就變龜車而已 08/05 13:40
andykofvul: 定速到下限,他超車就檢舉 08/05 13:48
YangChang: 超過10km才會被開單好嗎,限速90開99不會 08/05 13:49
ga047768: 本日最龜 08/05 13:56
yur: 那個叫低端人口(跟車無關) 08/05 14:03
treison: 你就慢啊 08/05 14:03
nini5400: 前面沒車我都定速100,但最近宜蘭天天塞,表速有90 08/05 14:03
nini5400: 真的要感恩 08/05 14:04
onlysammi: ACC最低定100實際約94,你這個垃圾龜車 08/05 14:07
yur: 說的好像大家都150開雪隧,還全油門咧,往宜蘭是下 08/05 14:09
lolicat: 他肚子痛想拉屎吧 08/05 14:09
yur: 坡,只要補一些油門就能開到90-100 08/05 14:09
applesck: 不要理那種垃圾飊仔 08/05 14:13
ncdw: 恭喜人生成就達成:開雪隧被龜神閃燈 08/05 14:15
PolyC11H20: 你就讓他貼,送他一張未保持車距罰單 08/05 14:18
peter0517: 龜 08/05 14:18
hesitates: 他屎在滾+1 尤其是早上 08/05 14:20
Brian23: 不要理他就好 照錶速開 講什麼gps的 叫交通部修法啊 08/05 14:24
Totoro0802: 原PO沒錯 只是遇到這種會很阿雜 08/05 14:30
aeronwu: 原來在車版依照規定速限開車是不對的喔!這邊的人都 08/05 14:31
aeronwu: 好兇喔! 08/05 14:32
※ 編輯: jazzcai (118.231.201.152 臺灣), 08/05/2022 14:43:46 ※ 編輯: jazzcai (118.231.201.152 臺灣), 08/05/2022 14:45:44
keigowei: 反正你都覺得你沒問題,那就沒問題啊你理他 08/05 14:45
bojan0701: 只要是規定且合理速限內,就別理他。越被閃壓力越 08/05 14:48
bojan0701: 大,加快只是增加出事機率。如果後車連這一點耐心 08/05 14:48
bojan0701: 都沒有,還開什麼車,去開飛機不會嗎? 08/05 14:48
r40491101: 你最好照表速訂70看看會不會被開單 08/05 14:49
r40491101: 開內側還訂90真的讓人白眼到爆 08/05 14:50
r40491101: 開外側就算了 08/05 14:50
r40491101: 貼車就送他罰單啊 08/05 14:50
ETJohn: 看到飆仔們森77就知道遠po做對了 08/05 14:53
哈哈,我好像釣出一堆不知道雪隧不能變換車道的人 ※ 編輯: jazzcai (118.231.201.152 臺灣), 08/05/2022 14:58:44 ※ 編輯: jazzcai (118.231.201.152 臺灣), 08/05/2022 15:01:05 ※ 編輯: jazzcai (118.231.201.152 臺灣), 08/05/2022 15:03:33
jonnii: 推薦您acc定速94 08/05 15:06
jonnii: 定速90在進雪隧前請自動切到外側車道 08/05 15:09
ga047768: 不能換車道還在內線龜。 不知道自己表速差多少就去 08/05 15:09
ga047768: 外線定90。 08/05 15:09
snap007: 全程99/90通過雪隧也差不到1分鐘,要別人超速違規 08/05 15:11
snap007: ,是不會自己跨雙白線超車喔 08/05 15:11
eric110030: 早上就是有你這種烏龜 開99很難嗎 08/05 15:13
atana: 所以你開內還外 08/05 15:13
ga047768: 全程70跟90差不到2分鐘 ,你還不是要挑90的開。 08/05 15:13
rojin: 定速開車法 08/05 15:14
BM2LVH: 有90不錯了 08/05 15:14
BM2LVH: 每次上雪隧都不到80... 08/05 15:14
jonnii: 當一路順暢時,定速90就是相對龜 08/05 15:15
belucky: 原po阿 其實這邊可以吉的不少耶 年終賺起來阿 08/05 15:16
belucky: 年終考績一起了 08/05 15:16
cheetahspeed: 原來是你 08/05 15:23
ga047768: 請你以後都開內線,把外線讓出來,謝謝。 08/05 15:27
maninpink: 是沒違法沒錯啦 但如果前方沒車 碰到你這種車在 08/05 15:29
maninpink: 我前面 心裡會覺得很賭爛就是了 08/05 15:29
yavonne: 我上次雪隧開錶速100,後面的貨車就超我車了。他真 08/05 15:32
yavonne: 嫌你開太慢對你不爽,冒著罰單風險都會超你的。 08/05 15:32
jonnii: 暑假開車回家很討厭 08/05 15:33
Koedikt: 他急吧 08/05 15:37
semicoma: 認真說 這種時候你就把所有能看到對方閃大燈的鏡面 08/05 15:39
Donaldren: 死龜寶XDD 08/05 15:40
semicoma: 都轉角度不要被閃到 心態保持好 繼續你原本合規的 08/05 15:40
semicoma: 車速 08/05 15:40
cocoi: 快樂表政府不公定標準,你們在那邊罵車主有病嗎? 08/05 15:41
jonnii: 煩暑假基本上車速就是比平常慢 08/05 15:41
mardy0422: ==什麼是外線大客車內線小車呢? 08/05 15:44
mardy0422: 還有,你都已知你是定速90不趕時間,那為什麼不進隧 08/05 15:44
mardy0422: 道前就讓出內線呢? 08/05 15:44
a0972723495: 訂102耶再說,90有夠慢 08/05 15:46
hisashi: 假問真取暖 08/05 15:47
mardy0422: 不是說您錯~只是解決問題,不要讓您再被閃然後心 08/05 15:49
mardy0422: 情不好上來po文討拍。 08/05 15:49
jonnii: 原po別怕,有常走雪隧就知道該怎麼定速 08/05 15:51
jasonis08: 超好笑,還說釣出一堆不知不能變換車道的人,結果 08/05 15:52
jasonis08: 那些人都是挺你得龜車 08/05 15:53
mono1023: 雪隧又不能切 內外車道真有什麼差? 08/05 15:53
ga047768: 就是不能換車道,才要更落實快慢車的分流… 08/05 16:03
ga047768: 根本沒人指望換車道,一堆人在補什麼… 08/05 16:04
MSchumi: 我支持原PO 90就90.... 08/05 16:05
Lanese: 暑假早上6點多往宜蘭車就滿多的不是?我每天開車通 08/05 16:05
Lanese: 勤都看對向一堆車 08/05 16:05
Lanese: 每天進雪隧前就是猜左右邊 08/05 16:06
MSchumi: 按錯 等等補回來 08/05 16:06
Shayton: 沒事啦 08/05 16:09
MSchumi: 最高速限就最高速限 08/05 16:10
berryc: 開車還不知道錶速跟實際差多少的滿可憐的 08/05 16:17
berryc: 租車仔就算了可原諒 08/05 16:17
asd45674100: 你以為測速會剛剛好100就照喔 笑死 路隊長還敢上來 08/05 16:28
asd45674100: 討拍.. 08/05 16:28
greenadi: 烏龜還理直氣壯 08/05 16:29
h816090: 跟上車流會死麻,前面沒車就開100啊,沒人叫你開到 08/05 16:33
wlnspt: 你前面如果沒車的話 被閃活該 哈哈 08/05 16:33
h816090: 會被開罰 08/05 16:33
h816090: 他衰跟在你後面又不能換車道 08/05 16:34
h816090: 開車只想自己的人,不知在想什麼 08/05 16:34
h816090: 你慢活,別影響到他人 08/05 16:34
benallen: 違規仔愛違規不會超車?智障嗎 08/05 16:38
lichenyi: 你的錶速90不等於別人的90,麻煩請直接+10開到錶速 08/05 16:39
lichenyi: 100 08/05 16:39
karting: 路隊長 08/05 16:39
machiner: 踩剎車啊 08/05 16:46
yeeroyuy: 不要理啊 08/05 16:50
wellkimi: 前車如果開180 自己也要跟上嗎 沒車保持限速容許 08/05 16:53
wellkimi: 的最高值不行嗎! 08/05 16:53
lmc66: 快樂錶定速90… 08/05 16:54
jcgood: 人家叫你開99,你在扯什麼罰單 08/05 17:00
oioio1688: 沒車我都開速限+10 08/05 17:22
yellow3621: 長知識了,雪隧有gps速度而且可以換到外車道 08/05 17:24
jepk007: 你沒違規就好 管其他人怎麼閃 08/05 17:24
ga047768: 我都內線表速70,給你參考看看 08/05 17:28
yumeixuan: 好了推文不要吵 禁止重機上國道就解決了 08/05 17:49
berryc: 要人家+10的沒道理, 只要不低於最高速限就可以 08/05 17:53
berryc: GPS速度當然是在隧道外看啊, 自己的車難道連錶速跟 08/05 17:53
berryc: 實際速度差距都沒概念嗎? 08/05 17:54
NCTUEECS: 可憐哪 08/05 17:54
berryc: 我剛換車開上國道試ACC就會順便測錶速跟實際的差距 08/05 17:55
berryc: 抱著錶當神主牌的真的很可憐 08/05 17:55
ibanes: 被閃就開70龜死他阿 08/05 18:03
alexbklin: 跟上車流有這麼困難嗎 08/05 18:31
Sciarra: 你的90又不是人家的90 08/05 18:32
pchion2002: 改60 08/05 18:35
hommingwu: 你開合法速限沒有問題,要超你,也是他開心就好 08/05 18:43
derrick0727: 牛頭牌正常發揮 08/05 18:51
www456789789: 你來這裡會被很多人檢討==幫補血 08/05 18:51
appleonatree: 99哪會有罰單 08/05 18:53
nni1106: 定速90實際才85 最高可以開95 妳開太慢 08/05 18:56
qilar: 不用理他 08/05 18:56
m28633146: 合法開心就好 其他管他的 08/05 18:58
h816090: 180你跟得上就跟啊,少無聊了 08/05 19:02
Pet: 你跟前車的距離是不是愈拉愈遠?? 08/05 19:08
z80520xx: 我也會閃 08/05 19:27
NoNogun: 看來車版違規仔跟守法仔各半 08/05 19:42
Kurosagi5566: 你開車多久了?速限加10都不會被開單你不知道? 08/05 19:44
almostreal: 可能他家出事特別急吧 08/05 19:45
mp60707: 龜仔 08/05 19:47
cccc77: 所以你在內線? 08/05 19:51
devin0329: 你不知道對車版飆仔來說,內線都是超車道嗎? 08/05 19:52
yfhao: 如果前面沒車的話 真的開太慢 雪隧又不能變換車道 08/05 19:53
yfhao: 只能跟你後面 08/05 19:53
almostreal: 他趕投胎吧,照速限開就好 08/05 19:56
MKIU: 龜寶笑死 08/05 19:59
wayaya: 幹嘛被這種咖影響,維持自己的就好 08/05 20:00
sted0101: 開80 08/05 20:04
devin0329: 不用煞車,取消acc放開油門就好,有種騎上來 08/05 20:04
MugenRR: 99會有罰單? 08/05 20:07
Ericcws: 後視鏡搬一下便防眩光模式就好了,必要時左右的收 08/05 20:18
Ericcws: 起來 08/05 20:18
victor33: 跟上前面 08/05 20:56
e33554431: 你合法沒問題 但就是擋到後車了 上面也講過99不會被 08/05 20:57
e33554431: 罰 08/05 20:57
xyzkim: 可悲90 08/05 20:57
ganninian: 超速仔真多 你他媽遇到照相有種就別減速 08/05 20:58
ga047768: 雪隧定在表速99也不會被開單… 08/05 21:13
MK47: 直接煞車讓他過 然後撞他 08/05 21:28
s094155: 雪隧問內線是怎樣 有開過車嗎笑死 08/05 21:34
s094155: 愛閃燈逼車幹嘛不乾脆跨裝白線超車 裝守法喔 08/05 21:37
Tahuiyuan: 隧道裡不能變換車道,愛閃讓他閃啊,跟上前方車流 08/05 21:38
Tahuiyuan: 就好,飆仔有本事在雪隧攔車試試。 08/05 21:38
bigshiun: 雪隧我每天開,開了10年,表速99沒被拍過 08/05 21:39
Liszt1025: 就讓他逼阿,沒保持安全距離被開單是他的事 08/05 21:51
s094155: 飆仔敢逼車 敢不保持安全距離 唯獨不敢跨線 邏輯奇 08/05 21:54
s094155: 特 08/05 21:55
s155260: 被牛頭牌超車檢討自己吧 08/05 21:55
AustinPowers: 雪隧如果你能整條都開90...那跟開100也差不了多久 08/05 22:15
alex0203cool: 這年頭守法還要被噓 幫補血 08/05 22:36
ga047768: 雪隧開90八分半出隧道,開70十一分。開50十六分。 08/05 22:43
ga047768: 如果大家都在速限內提高車速,70-90之間可以多10% 08/05 22:52
ga047768: 的運輸能力。 08/05 22:52
cccc77: 沒要超車?外線沒車開內線? 08/05 22:54
ziggy: 龜 08/05 23:02
Roger106: 反串仔要先說捏 08/05 23:04
ga047768: 原PO沒錯,只是有更好的選擇而已。 雪隧雙向各8支 08/05 23:10
ga047768: 測速,知道的應該都不太敢開速限+10。 速限+7+8就 08/05 23:10
ga047768: 稱為飆仔,根本侮辱飆仔吧… 08/05 23:10
alan029: 就是這樣 雪隧常常塞 08/05 23:12
smart1989: 等等 你是不是開內線? 08/05 23:12
yhkl: 塞車就因為你這種 08/05 23:13
jdkcupid: 瘋狂煞車啊 08/05 23:20
chupiggy: 推文扯內線的是不是根本沒開過雪隧啊 呵呵 08/05 23:44
Ccsteeker: 為什麼開90 後面跟不上,最後變成30塞車?想一下。 08/05 23:45
strmnati: 跟上車流很難嗎 08/05 23:51
ga047768: 塞車會有前因後果,笑的人平常應該都無腦開車。 所 08/06 00:04
ga047768: 以國道才會這麼塞。 08/06 00:05
ga047768: 不然為什麼不開放大客車行駛雪隧內側? 08/06 00:05
fzr700: 定110 從沒被照過給你參考 08/06 00:12
roger2232: 說不定是提醒你的車子有什麼問題? 08/06 00:16
ga047768: 去看一下資料就知道為什麼塞了。別只會笑… 08/06 00:21
jasd1786: 開100啊 開得起車繳不起罰單?何不首都? 08/06 00:33
ga047768: 上坡外線大客車70爬坡,內線小客車沒注意車速也降 08/06 00:46
ga047768: 到70,就讓原本內線的始用效率降低了10%。 每小時差 08/06 00:46
ga047768: 200車次。 自己開雪隧的時候觀察一下就好。不要acc 08/06 00:48
ga047768: 開著就滑手機笑笑。 08/06 00:48
UniQla: 龜仔討噓 08/06 00:55
wmp12linux: 可以改開90mile啊 08/06 01:13
Frobel: 推 08/06 01:28
l11111111: 勁戰仔還要扯內線 笑死 08/06 01:34
Anikk: 用車習慣有差,限速110 我也是抓117過照相機 08/06 01:50
Anikk: 可能閃你大燈的他常常在走雪隧,所以覺得你特別慢 08/06 01:51
jaychen67: 崩潰龜 08/06 01:54
ga047768: 一堆沒開過雪隧的在亂推文,很符合暑假風格。 08/06 01:57
ga047768: 算了,看起來就數字版跑來亂的,不用認真了。 08/06 02:04
jordonmi: 到底在龜什麼 08/06 02:48
Airfoil: 一堆車寶上路 都以為路自己家的 沒在管別人的 想怎 08/06 03:20
Airfoil: 麼開就怎麼開。 08/06 03:20
kiogy: 被閃剛好而已,國道上一堆這種人 08/06 05:48
bolee: 上次檢舉閃大燈的低能89好爽 08/06 06:20
HWbb: 不會開車還是去騎腳踏車吧 08/06 07:54
diamondd: 遇到龜仔就是先撞 下車後再請一頓粗飽 08/06 08:44
youkisushe: 限速90其實錶速可以開到105 08/06 08:46
youkisushe: 雪隧應該沒測速吧 我記得上次沒車我就維持110左右 08/06 08:47
G400: 法律是道德的最低標準 08/06 09:07
Duroc: 你是不是考駕照沒有考智力測驗 08/06 09:12
spihc: 免理他啊,握都當躁鬱症病患趕著去醫院吧 08/06 09:13
ga047768: 雪隧雙向各八個測速點,在避車彎上方,地上會有車距 08/06 09:27
ga047768: 標示 08/06 09:27
preisner: 請至少設定在表速95好嗎!路隊長! 08/06 09:44
preisner: 不然就不要開內線! 08/06 09:46
Arschloch: 笑死 車版素質 08/06 09:50
korsg: 照速限開沒問題啊 噓的智障嗎? 08/06 09:53
korsg: 且又沒被雪隧廣播開太慢之類的,後車是在閃三小? 08/06 09:54
korsg: 這麼急是家裡死太多人趕著回去收屍還是怎樣? 08/06 09:55
korsg: 這麼急就帶種點在隧道內換車道超車啊 肏 08/06 09:56
sincere77: 錶速90真的龜 08/06 10:01
aware: 開90不要開內線好嘛 08/06 10:19
ga047768: 建議雪隧最高速限調降到70,並裝設區間測速,以防 08/06 10:22
ga047768: 止逼車出現。 08/06 10:22
inhabitptt: 照速限開有什麼問題 08/06 10:33
zzyzx: 在雪隧還要原po超速 太多低端仔了吧 08/06 10:33
inhabitptt: 看推文真的不意外台灣交通這麼差 08/06 10:34
DsLove710: 噓文的飆仔就別開雪隧了 08/06 10:44
a901922001: 我都速限加20不佔內線 08/06 10:45
ga047768: 雪隧最好能定到90啦… 08/06 10:49
jdkcupid: 早上6點又沒車 樓上賴床仔? 08/06 11:02
chiachinlin: 沒本事的才會閃大燈,有本事的早就超車過去了 08/06 11:05
AddMe0815: 雪隧13km開90跟100是差多久?趕投胎?路怒症發作? 08/06 11:14
AddMe0815: 我定100巡航前車降到90也還好啊 08/06 11:15
AddMe0815: 雪隧就崩潰的人去蘇花改怎麼辦XD 08/06 11:17
timeofmiller: 閃燈不代表逼車 ,開慢請到外側道 08/06 11:18
ga047768: 暑假前剛好各開一次早上六點跟晚上十二點,定速50 08/06 11:24
ga047768: 都還要踩煞車呢! 08/06 11:24
rvd8164: 龜車還檢討別人 08/06 11:42
alex0203cool: 會哭八龜車的就算上限拉到110 人家錶速110也是會哭 08/06 12:04
alex0203cool: 全長13公里 開90要8分半多 開100是快8分 差40秒而已 08/06 12:06
alex0203cool: 屎在滾就去抗議 提高速限啦 08/06 12:07
ga047768: 速限70都還夠用吧! 70十分鐘就出去了。 08/06 12:12
eeddded: 逼車垃圾 08/06 13:07
cccmailncyu: 一堆定速龜車難怪每天塞 08/06 13:09
WenliYang: 台灣這種垃圾飆仔超多... 08/06 13:24
s094155: 請問雪隧還在跳針講內外線的駕駛素質? 08/06 13:37
jio5557647: 恭喜 08/06 14:09
jasd1786: 玻璃心 拜託快賣車 搭客運都不會有這些問題 08/06 14:26
ga047768: 笑死,龜仔飆仔勁戰仔大亂鬥。 08/06 14:32
tseng680723: 打3秒雙黃,讓後車腦內小劇場 08/06 14:39
beariscut: 推文沒讓我失望 一堆素質超差的閩南仔 08/06 14:58
tfct: 快樂錶啊 08/06 15:42
kakadoo: 90就90不要理飆仔啦,講到只有他們懂時速,笑死 08/06 18:11
toeic900: 難怪雪隧常常塞車 08/06 18:27
toeic900: 算時間的你當雪隧只有你一台車喔? 08/06 19:00
linecross: 雖然我會定100但是遇到原po也不會覺得怎樣,這篇噓 08/06 19:44
linecross: 文真的體現台灣用路人素質 08/06 19:44
a1277034: 智障很多,後攝影檢舉他 08/06 20:07
killer75115: 噓的真的超級好笑 08/06 21:01
facebookig: 龜速車可以走省道嗎?開那麼慢滾去外車道 08/06 22:42
facebookig: 原來你就是龜速車喔!看 08/06 22:43
facebookig: 你開車觀念怎麼那麼差啊! 08/06 22:43
facebookig: 不要當龜速車路隊長好不好? 08/06 22:44
facebookig: 比起飆仔,龜速車更讓人討厭 08/06 22:45
soar1983: 噓的一堆腦呢? 08/06 22:46
facebookig: 可憐龜車上網取暖失敗 08/06 22:47
ga047768: 今天才過一個在雪隧內開霧燈檢舉成功的,嘻嘻。 08/06 22:48
ga047768: 不保持安全距離還開霧燈,欠檢舉。 08/06 22:48
jdkcupid: 你可以降到70 然後開窗比中指 08/06 23:17
aas5566: 補血 08/07 00:21
OGClife: 看到這推文 以後我雪隧一定定速90 有本事去檢舉我 08/07 00:30
OGClife: 違規啊 08/07 00:30
cado: 在講開單誰出真無知,雪隧有誰開99被開單的,拿出來 08/07 01:42
cado: 看看啊 08/07 01:42
lijim: 會塞車就是你這種人 08/07 02:08
li11223344: 踩煞車,他要超車自己想辦法 08/07 04:00
aaronses7118: 路隊長 你知道自己gpa多少嗎 08/07 06:54
aaronses7118: 你是不是普通內線也100爽爽開 有空看一下後面排隊 08/07 06:55
aaronses7118: 排多長 你好開別人很難開 08/07 06:55
watertree: 閃他霧燈 08/07 14:53
aadsl: 推文有趣 08/07 14:54
fallen01: 不知道鬼島素質嗎?在這裡守法會被公審的 08/07 15:48
bdbpzcatqpq1: 呵呵 08/07 18:58
davidlin99: 如果你前面空一大段,必被閃 08/07 19:26
lkdsa: 幫補血為何一定要多5.9km是趕投胎?有差嗎 08/07 20:03
lianihate12: 一堆違規仔不知道在大聲什麼? 08/07 20:12
dynamo: 看你前面有沒有車 有車他的問題 沒車你的問題 08/07 23:05
bluekeykey: 傻眼 還以為會被開罰單 請看規定好嗎 08/07 23:14
ppumpkin: 看看推文不就知道了,一堆逼車仔,台灣人素質就是 08/07 23:49
ppumpkin: 這樣 08/07 23:49
ppumpkin: 我都大燈閃一次就降速5km,慢慢跟他玩,爽 08/07 23:50
philyellow: 後車閃燈也是逼車 08/08 08:45
BBBroflovski: 是我就降速繼續龜 你跨雙白線馬上檢舉 08/08 08:51
musicaledio: 雪隧開什麼99 要不是民眾很難檢舉超速,不然我絕 08/08 10:26
musicaledio: 對檢舉那些以為隧道內線就該無腦跟上車流的超速仔 08/08 10:26
musicaledio: 。隧道內照法定速限開車到底有什麼障礙?趕投胎? 08/08 10:27
yeeroyuy: 90了沒問題吧 08/08 11:33
netburst: 給他貼車阿 等著被攝影檢舉 08/08 13:50
aalove: 你沒錯 但是希望你能開到表速99 08/08 14:15
Pigchi: 守法開車理直氣壯 而且也讓不開 就讓他閃 08/08 21:06
guteres: 別理他,平常心,說不定真的屎尿在滾或有急事 08/08 21:55
miler22020: 沒差 別理 08/09 00:24
wuwaiter: 傻眼,一堆在那邊實際可能8x的人 腦子有病嗎 08/09 01:11
wuwaiter: 只要不是路隊長 不是很慢的速度 閃大燈的意義? 08/09 01:12
wuwaiter: 想超車 你換車道啊,罰單是你家的事 憑什麼要我 08/09 01:13
wuwaiter: 依你的習慣來開車? 08/09 01:13
分享給朋友
近期熱門文章
car熱門文章
分享給朋友